Other Public Products
Issued by NWS Grand Forks, ND

Home | Current Version | Previous Version | Graphics & Text | Print | Product List | Glossary On
Versions: 1 2 3 4 5 6 7 8 9 10 11 12 13 14 15 16 17 18 19 20 21 22 23 24 25 26 27 28 29 30 31 32 33 34 35 36 37 38 39 40 41 42 43 44 45 46 47 48 49 50
000
FPUS83 KFGF 161031
OPUFGF
PRAIRIE TO PINES WEATHER ROUNDUP
NATIONAL WEATHER SERVICE EASTERN NORTH DAKOTA/GRAND FORKS ND
400 AM CST TUE JAN 16 2018

 **SATELLITE DATA USED TO AUGMENT SKY COVER AT AUTOMATED STATIONS**
 *****  WEATHER ACROSS EASTERN NORTH DAKOTA  *****

CITY           SKY/WX    TMP DP  RH WIND       PRES   REMARKS
GRAND FORKS    FAIR     -15 -21  74 W6        30.81F WCI -29
GRND FORKS AFB FAIR     -15 -23  67 NW8       30.80F WCI -33
GRND FORKS NWS   N/A    -15 N/A N/A NW3         N/A
BUXTON           N/A    -14 -15  99 W6          N/A  WCI -29
DEVILS LAKE    FAIR     -18 -24  76 W6        30.75F WCI -33
FARGO          FAIR     -12 -18  74 NW9       30.82S WCI -30
WAHPETON ARPT  CLOUDY    -9 -17  70 NW9       30.80S WCI -27
$$

 *****  WEATHER ACROSS CENTRAL AND WESTERN NORTH DAKOTA  *****

CITY           SKY/WX    TMP DP  RH WIND       PRES   REMARKS
JAMESTOWN      FAIR     -15 -20  78 W9        30.75F WCI -34
BISMARCK       FAIR     -17 -23  73 W5        30.79S WCI -30
MINOT          FAIR     -14 -21  71 S7        30.69F WCI -30
MINOT AFB      FAIR     -18 -24  73 S8        30.69F WCI -36
GARRISON         N/A    -19 -25  73 CALM      30.71F
WILLISTON      FAIR     -15 -21  74 S3        30.65F
DICKINSON      FAIR     -14 -20  74 SW8       30.58F WCI -31
HETTINGER      FAIR     -15 -21  74 CALM      30.64F
$$

 *****  OTHER OBSERVATIONS NORTHEAST NORTH DAKOTA  *****

CITY           SKY/WX    TMP DP  RH WIND       PRES   REMARKS
WALHALLA       FAIR      -9 -18  64 SW5       30.76F WCI -21
LANGDON        FAIR     -17 -22  76 SW12      30.68F WCI -38
CAVALIER         N/A    -11 -18  70 SW5       30.78F WCI -23
GRAFTON        FAIR     -15 -20  76 SW6       30.82F WCI -29
CANDO          FAIR     -20 -26  76 W5        30.73F WCI -33
FORT TOTTEN      N/A    -17 -24  69 W2        29.95S
ROLLA          FAIR     -11 -18  70 SW12      30.63F WCI -31
RUGBY          FAIR     -20 -26  76 SW7       30.72F WCI -37
 ***** THE ABOVE OBSERVATIONS ARE NON NWS ARE NOT QUALITY
        CONTROLLED AND MAY MIS-REPORT RAIN FOR SNOW...
$$

 *****  OTHER OBSERVATIONS SOUTHEAST NORTH DAKOTA *****

CITY           SKY/WX    TMP DP  RH WIND       PRES   REMARKS
COOPERSTOWN    FAIR     -17 -22  76 W6        30.75F WCI -31
VALLEY CITY    FAIR     -15 -22  70 NW9       30.77F WCI -33
OAKES            N/A    -13 -20  70 NW9       30.78F WCI -31
GWINNER          N/A    -11 -18  70 NW12      30.78F WCI -31
SHEYENNE NWR     N/A    -13 -21  66 NW6       29.95S WCI -27
BUFFALO          N/A    -15 -21  72 SE6         N/A  WCI -29
WYNDMERE       NOT AVBL
 ***** THE ABOVE OBSERVATIONS ARE NON NWS ARE NOT QUALITY
       CONTROLLED AND MAY MIS-REPORT RAIN FOR SNOW...
$$

  *****  WEATHER ACROSS NORTHERN MINNESOTA  *****

CITY           SKY/WX    TMP DP  RH WIND       PRES   REMARKS
FLAG ISLAND    FAIR     -17 -20  83 NW3       30.70F
WARROAD        FAIR     -17 -22  76 SW3       30.72F
ROSEAU         FAIR     -17 -22  76 W3        30.74F
HALLOCK        FAIR     -17 -22  76 CALM      30.79S
THF RVR FALLS  FAIR     -19 -24  77 NW3       30.77S
HALSTAD        NOT AVBL
FOSSTON        CLOUDY   -15 -20  76 NW5       30.73S WCI -27
BAUDETTE       FAIR     -16 -21  78 W6        30.70F WCI -31
WASKISH        CLOUDY    -9 -15  77 NW5       30.70S WCI -21
CROOKSTON      FAIR     -17 -20  83 NW3       30.82R
$$
  *****  WEATHER ACROSS CENTRAL AND WEST MINNESOTA  *****

CITY           SKY/WX    TMP DP  RH WIND       PRES   REMARKS
BEMIDJI        CLOUDY   -11 -16  81 W6        30.68S WCI -25
PARK RAPIDS    FAIR     -10 -15  78 NW9       30.65F WCI -27
WADENA         FAIR     -13 -17  84 W6        30.68R WCI -27
DETROIT LAKES  MOCLDY   -13 -17  84 N9        30.71F WCI -31
MOORHEAD       CLOUDY   -11 -18  70 N10       30.81S WCI -30
FERGUS FALLS   CLOUDY   -11 -17  77 N9        30.80S WCI -29
ELBOW LAKE     FAIR     -12 -16  83 NW9       30.74F WCI -30
MORRIS MN      FAIR      -9 -17  70 NW16      30.72F WCI -32
STAPLES        CLOUDY    -4  -8  84 NW8       30.66S WCI -19
WHEATON        CLOUDY    -9 -15  77 NW14      30.80F WCI -31
$$
  *****  WEATHER ELSEWHERE ACROSS MINNESOTA  *****

CITY           SKY/WX    TMP DP  RH WIND       PRES   REMARKS
DULUTH         FAIR      -1  -3  91 N16       30.56S WCI -21
INTRNTL FALLS  CLOUDY    -3  -7  82 NW5       30.67S WCI -13
ELY            CLOUDY    -2  -6  84 N3        30.59S
CLOQUET        FAIR       0  -6  78 NW12      30.58S WCI -18
BRAINERD       FAIR      -4  -9  79 NW9       30.65S WCI -20
HIBBING        CLOUDY    -2  -5  87 N10       30.60S FOG     WCI -19
ALEXANDRIA     CLOUDY   -10 -15  78 NW9       30.68S WCI -27
SAINT CLOUD    FAIR      -4  -7  87 NW10      30.65R WCI -21
MINNEAPOLIS    MOCLDY    -1  -4  87 NW10      30.64R WCI -17
$$

  *****  WEATHER ACROSS SOUTH DAKOTA  *****

CITY           SKY/WX    TMP DP  RH WIND       PRES   REMARKS
SIOUX FALLS    CLOUDY    -4  -8  83 N12       30.71R WCI -22
BROOKINGS      CLOUDY    -8 -12  83 N17       30.70R WCI -31
WATERTOWN      CLOUDY   -10 -14  82 N14       30.69R WCI -31
HURON          MOCLDY    -9 -15  75 NW13      30.81S WCI -29
SISSETON         N/A     -9 -14  78 NW14      30.77F WCI -30
ABERDEEN       FAIR     -11 -17  75 N5        30.81F WCI -23
MITCHELL       MOCLDY    -7 -14  71 NW15      30.81R WCI -28
PIERRE         FAIR      -8 -14  74 NW8       30.79F WCI -24
MOBRIDGE       FAIR     -12 -18  74 CALM      30.74F
RAPID CITY     FAIR     -10 -16  74 S3        30.63F
$$

  *****  SOME WEATHER IN NEARBY STATES *****

CITY           SKY/WX    TMP DP  RH WIND       PRES   REMARKS
GLASGOW MT     FAIR     N/A N/A N/A E17       30.49F
GREAT FALLS MT FAIR      25  11  55 S18       30.20F WCI  11
CHEYENNE WY    FAIR      -3  -9  75 W5        30.40F WCI -13
SCOTTSBLUFF NE FAIR      -8 -13  78 CALM      30.59F
OMAHA NE       FLURRIES   0  -8  69 N16       30.72R WCI -20
DES MOINES IA  FLURRIES  -4 -11  72 NW14      30.63R WCI -24
DAVENPORT IA   FLURRIES N/A N/A N/A W14       30.52R
CHICAGO IL     CLOUDY    10   4  76 W8        30.36R WCI  -2
EAU CLAIRE WI  FAIR       1   0  95 CALM      30.52R
LA CROSSE WI   CLOUDY     8   3  80 NW9       30.54R WCI  -5
$$

  *****  SOME NATIONAL WEATHER *****

CITY           SKY/WX    TMP DP  RH WIND       PRES   REMARKS
LA GUARDIA NY  CLOUDY    25  19  78 E7        30.50F WCI  17
RALEIGH NC     FAIR      21  16  81 CALM      30.45S
ATLANTA GA     FAIR      32  25  75 SE3       30.39S
NEW ORLEANS LA FAIR      41  41 100 CALM      30.37R
OKLAHOMA CITY  FAIR       9  -4  55 N21       30.74R WCI -11
ALBUQUERQUE NM FAIR      24  14  65 E16       30.43R WCI  11
SALT LAKE CITY FAIR      32  27  81 NE5       30.31R
LOS ANGELES CA FAIR      55  55 100 E5        30.12S
BOISE ID       FAIR      35  28  75 E6        30.21R
SEATTLE WA     LGT RAIN  49  47  93 SE13      30.04R
$$

*** WEATHER ACROSS MANITOBA...SASKATCHEWAN AND ONTARIO ***
                ***ONTARIO***

CITY           SKY/WX    TMP DP  RH WIND       PRES   REMARKS
GERALDTON      FLURRIES   0  -4  85 NW5       30.53F WCI -10
THUNDER BAY    PTCLDY     0  -2  92 W7        30.60F WCI -13
SIOUX LOOKOUT  LGT SNOW  -8 -11  84 NW6       30.60F FOG     WCI -21
TORONTO        FLURRIES  16  12  86 N6        30.30S WCI   7
BIG TROUT LK   CLOUDY    -9 -15  77 W10       30.41F WCI -28
PICKLE LAKE    NOT AVBL
DRYDEN         CLOUDY   -11 -15  84 W8        30.62F WCI -28
KENORA         MOCLDY   -13 -18  77 CALM      30.65F
$$
                *** MANITOBA***

CITY           SKY/WX    TMP DP  RH WIND       PRES   REMARKS
BRANDON        MOCLDY    -9 -17  70 W10       30.67F WCI -28
DAUPHIN        CLOUDY     1  -8  66 SW15G21   30.59F WCI -18
ISLAND LAKE    MOCLDY    -6 -13  71 SW13      30.45F WCI -25
PILOT MOUND      N/A    -18 -24  76 SW5         N/A  WCI -31
THE PAS        PTCLDY     0  -9  65 SW8       30.40F WCI -15
THOMPSON       MOCLDY     1  -6  71 SW17G24   30.20F WCI -19
WINNIPEG       PTCLDY   -11 -18  70 SW8       30.75F WCI -28
LYNN LAKE      CLEAR      5   0  78 W12G20    30.07F WCI -11
CHURCHILL      FLURRIES   9   1  72 W12G20    29.93F WCI  -6
GILLAM         CLOUDY     1  -6  71 SW15G21   30.13F WCI -18
$$
                ***SASKATCHEWAN***

CITY           SKY/WX    TMP DP  RH WIND       PRES   REMARKS
ESTEVAN        CLEAR     -8 -15  71 SW13      30.60F WCI -28
KINDERSLEY     CLEAR      1  -8  66 S7        30.21F WCI -11
LLOYDMINSTER   CLEAR      1  -8  66 SE10      30.14F WCI -14
PRINCE ALBERT  CLEAR    -18 -26  69 S3        30.38F
REGINA         MOCLDY    -6 -13  71 SE16      30.46F WCI -28
YORKTON        CLOUDY     0  -8  71 S10       30.50F WC



USA.gov is the U.S. government's official web portal to all federal, state and local government web resources and services.